Regional Weather Roundup
Issued by NWS

Home | Current Version | Previous Version | Text Only | Print | Product List | Glossary On
Versions: 1 2 3 4 5 6 7 8 9 10 11 12 13 14 15 16 17 18 19 20 21 22 23 24 25 26 27 28 29 30 31 32 33 34 35 36 37 38 39 40 41 42 43 44 45 46 47 48 49 50
000
ASMX46 KSGX 010611
RWRMX

MEXICAN WEATHER ROUNDUP
NATIONAL WEATHER SERVICE SAN DIEGO CA
1100 PM PDT MON AUG 31 2015

BAJA CALIFORNIA

CITY           SKY/WX    TMP DP  RH WIND       PRES   REMARKS
ENSENADA NW      N/A     70  32  24 CALM      29.90R
LA PAZ           N/A    N/A N/A N/A MISG        N/A
TIJUANA        PTCLDY    68  57  68 S3        29.95R

NORTHWESTERN MEXICO

CITY           SKY/WX    TMP DP  RH WIND       PRES   REMARKS
CHIHUAHUA      MOCLDY    64  36  34 CALM      30.12R
CULIACAN       MOCLDY    82  75  78 CALM      29.90F
HERMOSILLO     MOCLDY    79  72  78 N7        29.90F

NORTHEASTERN MEXICO

CITY           SKY/WX    TMP DP  RH WIND       PRES   REMARKS
MONTERREY      PTCLDY    72  66  83 E6        30.02R

WESTERN MEXICO

CITY           SKY/WX    TMP DP  RH WIND       PRES   REMARKS
AGUASCALIENTES   N/A    N/A N/A N/A MISG        N/A
GUADALAJARA    PTCLDY    64  59  82 CALM      30.20R
MAZATLAN       MOCLDY    75  72  88 N8        29.86F
PTO. VALLARTA  CLEAR     79  75  89 CALM      29.89R
ZACATECAS      PTCLDY    59  50  72 CALM      30.34R

CENTRAL MEXICO

CITY           SKY/WX    TMP DP  RH WIND       PRES   REMARKS
LEON           RAIN      61  59  94 CALM      30.35S
MEXICO CITY    PTCLDY    59  54  82 NE5       30.39S
PUEBLA         MOCLDY    57  54  88 S2        30.39F
QUERETARO      MOCLDY    61  59  94 NE8       30.34S
S. LUIS POTOSI MOCLDY    64  55  72 CALM      30.30S
TAMPICO          N/A    N/A N/A N/A MISG        N/A
TOLUCA         FOG       48  46  93 E3        30.46S VSB 1/2
VERACRUZ         N/A    N/A N/A N/A MISG        N/A

SOUTHERN MEXICO

CITY           SKY/WX    TMP DP  RH WIND       PRES   REMARKS
ACAPULCO       PTCLDY    82  77  83 N3        29.90S
OAXACA         MOCLDY    64  63  94 CALM      30.29R
TAPACHULA      CLOUDY    77  75  94 CALM      29.94F

YUCATAN PENINSULA

CITY           SKY/WX    TMP DP  RH WIND       PRES   REMARKS
CANCUN         CLOUDY    81  77  89 E6        30.02S
COZUMEL        PTCLDY    75  75 100 E3        30.01S
MERIDA         PTCLDY    77  75  94 E8        29.99S

$$




USA.gov is the U.S. government's official web portal to all federal, state and local government web resources and services.